TimeWET,TemperatureF,Dew PointF,Humidity,Sea Level PressureIn,VisibilityMPH,Wind Direction,Wind SpeedMPH,Gust SpeedMPH,PrecipitationIn,Events,Conditions,WindDirDegrees,DateUTC
12:00 AM,54,46,67,30.27,6,NE,11.5,,,,Partly Cloudy,40,2013-01-14 00:00:00
12:00 AM,53.6,46.4,77,30.27,6.2,NE,10.4,-,N/A,,Scattered Clouds,40,2013-01-14 00:00:00
12:30 AM,53.6,46.4,77,30.27,6.2,NE,11.5,-,N/A,,Scattered Clouds,40,2013-01-14 00:30:00
1:00 AM,53.6,46.4,77,30.27,6.2,ENE,10.4,-,N/A,,Scattered Clouds,60,2013-01-14 01:00:00
1:30 AM,53.6,44.6,72,30.24,6.2,ENE,11.5,-,N/A,,Scattered Clouds,60,2013-01-14 01:30:00
2:00 AM,51.8,44.6,76,30.27,6.2,ENE,6.9,-,N/A,,Scattered Clouds,70,2013-01-14 02:00:00
2:30 AM,51.8,46.4,82,30.27,6.2,East,6.9,-,N/A,,Scattered Clouds,80,2013-01-14 02:30:00
3:00 AM,50,44,74,30.28,6,ENE,9.2,,,,Partly Cloudy,70,2013-01-14 03:00:00
3:00 AM,50.0,44.6,82,30.27,6.2,ENE,9.2,-,N/A,,Scattered Clouds,70,2013-01-14 03:00:00
3:30 AM,48.2,44.6,87,30.27,6.2,ENE,6.9,-,N/A,,Scattered Clouds,70,2013-01-14 03:30:00
4:00 AM,50.0,42.8,76,30.27,6.2,NE,6.9,-,N/A,,Scattered Clouds,50,2013-01-14 04:00:00
4:30 AM,48.2,42.8,82,30.27,6.2,NE,4.6,-,N/A,,Scattered Clouds,50,2013-01-14 04:30:00
5:00 AM,48.2,42.8,82,30.27,6.2,ESE,5.8,-,N/A,,Scattered Clouds,120,2013-01-14 05:00:00
5:30 AM,44.6,41.0,87,30.27,6.2,ESE,4.6,-,N/A,,Scattered Clouds,110,2013-01-14 05:30:00
6:00 AM,44,40,82,30.31,6,East,5.8,,,,Scattered Clouds,100,2013-01-14 06:00:00
6:00 AM,44.6,41.0,87,30.27,6.2,East,5.8,-,N/A,,Scattered Clouds,100,2013-01-14 06:00:00
6:30 AM,42.8,39.2,87,30.27,6.2,East,6.9,-,N/A,,Partly Cloudy,90,2013-01-14 06:30:00
7:00 AM,42.8,41.0,93,30.27,6.2,East,4.6,-,N/A,,Partly Cloudy,90,2013-01-14 07:00:00
7:30 AM,42.8,39.2,87,30.27,6.2,East,5.8,-,N/A,,Partly Cloudy,90,2013-01-14 07:30:00
8:00 AM,42.8,39.2,87,30.27,6.2,East,6.9,-,N/A,,Partly Cloudy,100,2013-01-14 08:00:00
8:30 AM,44.6,41.0,87,30.27,6.2,East,8.1,-,N/A,,Partly Cloudy,90,2013-01-14 08:30:00
9:00 AM,49,40,64,30.31,6,East,9.2,,,,Scattered Clouds,80,2013-01-14 09:00:00
9:00 AM,48.2,41.0,76,30.27,6.2,East,8.1,-,N/A,,Partly Cloudy,80,2013-01-14 09:00:00
9:30 AM,51.8,41.0,67,30.27,6.2,ENE,11.5,-,N/A,,Partly Cloudy,70,2013-01-14 09:30:00
10:00 AM,51.8,41.0,67,30.30,6.2,ENE,9.2,-,N/A,,Partly Cloudy,60,2013-01-14 10:00:00
10:30 AM,53.6,41.0,62,30.30,6.2,ENE,10.4,-,N/A,,Partly Cloudy,70,2013-01-14 10:30:00
11:00 AM,55.4,41.0,58,30.27,6.2,ENE,9.2,-,N/A,,Partly Cloudy,60,2013-01-14 11:00:00
11:30 AM,57.2,39.2,51,30.27,-9999.0,ENE,9.2,-,N/A,,Clear,70,2013-01-14 11:30:00
12:00 PM,59,37,31,30.25,6,ENE,11.5,,,,,70,2013-01-14 12:00:00
12:00 PM,59.0,37.4,45,30.24,-9999.0,ENE,10.4,-,N/A,,Clear,70,2013-01-14 12:00:00
12:30 PM,60.8,37.4,42,30.24,-9999.0,NE,10.4,-,N/A,,Clear,50,2013-01-14 12:30:00
1:00 PM,60.8,35.6,39,30.21,-9999.0,NE,10.4,-,N/A,,Clear,40,2013-01-14 13:00:00
1:30 PM,62.6,35.6,37,30.21,-9999.0,NE,10.4,-,N/A,,Clear,50,2013-01-14 13:30:00
2:00 PM,62.6,37.4,39,30.21,-9999.0,NE,9.2,-,N/A,,Clear,40,2013-01-14 14:00:00
2:30 PM,62.6,37.4,39,30.21,-9999.0,NE,11.5,-,N/A,,Clear,40,2013-01-14 14:30:00
3:00 PM,62,37,28,30.20,6,NE,11.5,,,,,40,2013-01-14 15:00:00
3:00 PM,62.6,37.4,39,30.21,-9999.0,NE,11.5,-,N/A,,Clear,40,2013-01-14 15:00:00
3:30 PM,60.8,37.4,42,30.21,-9999.0,NNE,13.8,-,N/A,,Clear,30,2013-01-14 15:30:00
4:00 PM,62.6,37.4,39,30.21,6.2,NNE,11.5,-,N/A,,Partly Cloudy,30,2013-01-14 16:00:00
4:30 PM,62.6,37.4,39,30.21,6.2,NE,11.5,-,N/A,,Partly Cloudy,40,2013-01-14 16:30:00
5:00 PM,60.8,35.6,39,30.24,6.2,NE,11.5,-,N/A,,Partly Cloudy,50,2013-01-14 17:00:00
5:30 PM,59.0,35.6,42,30.24,6.2,NE,11.5,-,N/A,,Partly Cloudy,50,2013-01-14 17:30:00
6:00 PM,57,35,31,30.25,6,NE,9.2,,,,Scattered Clouds,50,2013-01-14 18:00:00
6:00 PM,57.2,35.6,44,30.24,6.2,NE,8.1,-,N/A,,Partly Cloudy,50,2013-01-14 18:00:00
6:30 PM,57.2,35.6,44,30.27,6.2,NE,9.2,-,N/A,,Partly Cloudy,50,2013-01-14 18:30:00
7:00 PM,53.6,35.6,51,30.27,6.2,ENE,8.1,-,N/A,,Partly Cloudy,70,2013-01-14 19:00:00
7:30 PM,53.6,35.6,51,30.27,-9999.0,ENE,6.9,-,N/A,,Clear,60,2013-01-14 19:30:00
8:00 PM,51.8,37.4,58,30.27,-9999.0,NE,5.8,-,N/A,,Clear,50,2013-01-14 20:00:00
8:30 PM,48.2,35.6,62,30.30,-9999.0,ENE,6.9,-,N/A,,Clear,70,2013-01-14 20:30:00
9:00 PM,49,37,52,30.32,6,East,5.8,,,,,100,2013-01-14 21:00:00
9:00 PM,48.2,35.6,62,30.30,-9999.0,East,4.6,-,N/A,,Clear,80,2013-01-14 21:00:00
9:30 PM,46.4,37.4,71,30.30,-9999.0,East,5.8,-,N/A,,Clear,100,2013-01-14 21:30:00
10:00 PM,44.6,37.4,76,30.30,-9999.0,ESE,4.6,-,N/A,,Clear,110,2013-01-14 22:00:00
10:30 PM,46.4,37.4,71,30.30,-9999.0,East,3.5,-,N/A,,Clear,90,2013-01-14 22:30:00
11:00 PM,44.6,37.4,76,30.30,-9999.0,East,4.6,-,N/A,,Clear,80,2013-01-14 23:00:00
11:30 PM,44.6,37.4,76,30.30,-9999.0,East,3.5,-,N/A,,Clear,80,2013-01-14 23:30:00